User: anonymous
Location: Ostrava
(49.8330°N, 18.2830°E)
Time: 13:04:32
(UTC+02:00)
Language:

Cosmos 1766 - Orbit

View from above orbital plane
View from above orbital plane
View from above satellite
View from above satellite

Ground track
Ground track

The orbit data is extracted from the following two-line orbital elements,

1 16881U 86055A   14107.96321031  .00007004  00000-0  48824-3 0  8412
2 16881 082.5102 071.4605 0014651 066.8781 293.3988 15.05181616507143
Epoch (UTC): 17 April 2014 23:07:01
Eccentricity: 0.0014651
inclination: 82.5102°
perigee height: 541 km
apogee height: 561 km
right ascension of ascending node: 71.4605°
argument of perigee: 66.8781°
revolutions per day: 15.05181616
mean anomaly at epoch: 293.3988°
orbit number at epoch: 50714

The dashed part of the orbit path shows where the satellite is in the earth's shadow,  

DLR